Simultaneous Nadir Overpasses (SNOs) Predictions

Prediction of SNOs between METOP-B and NOAA-19 Satellite Orbit:

Table of predicted SNOs for the next 14.0 days since TLE Epoch: 4/25/2015
Index Date (METOP-B) Time (METOP-B) Lat,Lon (METOP-B) SZA (METOP-B ) Date (NOAA-19) Time (NOAA-19) Lat,Lon (NOAA-19) SZA (NOAA-19 ) Distance(km) Time Diff (sec)
1 04/30/2015 18:35:05 75.30,-100.29 60.38 04/30/2015 18:33:58 75.32,-103.24 60.44 83.16 67
2 04/30/2015 19:25:58 -74.78, 65.53 120.15 04/30/2015 19:24:51 -74.78, 65.62 120.14 2.61 67
3 04/30/2015 20:16:37 74.80,-127.07 59.87 04/30/2015 20:15:49 74.78,-127.10 59.84 3.09 48
4 04/30/2015 21:07:20 -74.76, 40.13 120.19 04/30/2015 21:06:53 -74.75, 40.21 120.20 2.42 27
5 04/30/2015 21:58:00 74.73,-152.60 59.78 04/30/2015 21:57:51 74.74,-152.51 59.78 2.89 9
6
